When you browse on this site, cookies collect data to enhance your experience and personalize the content and advertising you see.
Visit our Privacy Policy to learn more. By continuing to use the site, you agree to this use of cookies and data.
  • In Hungary
  • List of Countries
  • For 7 days
  • Water Temperature
  • Satellite Maps
  • Weather Map
  • News
  • Weather Widgets
  • user-avatar
    Login

    Hourly Weather Lubin

    Today, 21 February, Thursday

    Time Temperature Precipitation Wind Pressure Humidity
    00:00 +5°C° 0 mm 3 mps 756 mmHg 80%
    01:00 +4°C° 0 mm 3 mps 756 mmHg 82%
    02:00 +4°C° 0 mm 3 mps 756 mmHg 83%
    03:00 +4°C° 0 mm 3 mps 756 mmHg 84%
    04:00 +3°C° 0 mm 3 mps 756 mmHg 85%
    05:00 +3°C° 0 mm 3 mps 756 mmHg 86%
    06:00 +3°C° 0 mm 3 mps 756 mmHg 86%
    07:00 +3°C° 0 mm 4 mps 756 mmHg 86%
    08:00 +4°C° 0 mm 4 mps 756 mmHg 82%
    09:00 +5°C° 0 mm 5 mps 756 mmHg 77%
    10:00 +6°C° 0 mm 5 mps 756 mmHg 73%
    11:00 +6°C° 0.6 mm 5 mps 755 mmHg 74%
    12:00 +6°C° 0.6 mm 5 mps 755 mmHg 76%
    13:00 +6°C° 0.6 mm 5 mps 755 mmHg 77%
    14:00 +6°C° 0.7 mm 5 mps 755 mmHg 78%
    15:00 +6°C° 0.7 mm 4 mps 755 mmHg 78%
    16:00 +7°C° 0.7 mm 4 mps 754 mmHg 78%
    17:00 +7°C° 0.1 mm 4 mps 754 mmHg 79%
    18:00 +7°C° 0.1 mm 4 mps 754 mmHg 80%
    19:00 +6°C° 0.1 mm 5 mps 754 mmHg 81%
    20:00 +6°C° 0.8 mm 5 mps 754 mmHg 85%
    21:00 +6°C° 0.8 mm 5 mps 754 mmHg 88%
    22:00 +6°C° 0.8 mm 5 mps 754 mmHg 91%
    23:00 +6°C° 0.9 mm 5 mps 754 mmHg 92%

    Tomorrow, 22 February, Friday

    Time Temperature Precipitation Wind Pressure Humidity
    00:00 +6°C° 0.9 mm 5 mps 754 mmHg 93%
    01:00 +6°C° 0.9 mm 5 mps 754 mmHg 93%
    02:00 +6°C° 0.6 mm 5 mps 754 mmHg 93%
    03:00 +6°C° 0.6 mm 5 mps 755 mmHg 92%
    04:00 +6°C° 0.6 mm 5 mps 755 mmHg 92%
    05:00 +3°C° 0.1 mm 6 mps 756 mmHg 88%
    06:00 +1°C° 0.1 mm 6 mps 757 mmHg 83%
    07:00 -1°C° 0.1 mm 6 mps 759 mmHg 79%
    08:00 -2°C° 0 mm 6 mps 760 mmHg 74%
    09:00 -2°C° 0 mm 6 mps 761 mmHg 69%
    10:00 -1°C° 0 mm 5 mps 763 mmHg 63%
    11:00 -1°C° 0 mm 5 mps 763 mmHg 58%
    12:00 0°C° 0 mm 5 mps 764 mmHg 53%
    13:00 0°C° 0 mm 5 mps 765 mmHg 48%
    14:00 0°C° 0 mm 5 mps 765 mmHg 46%
    15:00 0°C° 0 mm 4 mps 766 mmHg 45%
    16:00 0°C° 0 mm 4 mps 766 mmHg 44%
    17:00 0°C° 0 mm 3 mps 767 mmHg 47%
    18:00 -1°C° 0 mm 3 mps 767 mmHg 51%
    19:00 -2°C° 0 mm 2 mps 768 mmHg 54%
    20:00 -2°C° 0 mm 2 mps 768 mmHg 53%
    21:00 -2°C° 0 mm 2 mps 769 mmHg 53%
    22:00 -3°C° 0 mm 2 mps 769 mmHg 52%
    23:00 -3°C° 0 mm 2 mps 770 mmHg 51%

    Day after tomorrow, 23 February, Saturday

    Time Temperature Precipitation Wind Pressure Humidity
    00:00 -3°C° 0 mm 2 mps 770 mmHg 50%
    01:00 -3°C° 0 mm 2 mps 770 mmHg 49%
    02:00 -3°C° 0 mm 2 mps 770 mmHg 49%
    03:00 -3°C° 0 mm 2 mps 770 mmHg 49%
    04:00 -3°C° 0 mm 2 mps 770 mmHg 49%
    05:00 -3°C° 0 mm 2 mps 770 mmHg 48%
    06:00 -3°C° 0 mm 2 mps 770 mmHg 48%
    07:00 -2°C° 0 mm 1 mps 770 mmHg 47%
    08:00 -3°C° 0 mm 2 mps 770 mmHg 42%
    09:00 -2°C° 0 mm 2 mps 770 mmHg 37%
    10:00 -1°C° 0 mm 2 mps 771 mmHg 33%
    11:00 -1°C° 0 mm 2 mps 770 mmHg 30%
    12:00 +1°C° 0 mm 2 mps 770 mmHg 27%
    13:00 +2°C° 0 mm 2 mps 770 mmHg 24%
    14:00 +2°C° 0 mm 2 mps 769 mmHg 25%
    15:00 +2°C° 0 mm 2 mps 769 mmHg 26%
    16:00 +3°C° 0 mm 1 mps 769 mmHg 27%
    17:00 +2°C° 0 mm 1 mps 769 mmHg 30%
    18:00 -1°C° 0 mm 2 mps 769 mmHg 33%
    19:00 -2°C° 0 mm 2 mps 769 mmHg 36%
    20:00 -2°C° 0 mm 2 mps 769 mmHg 36%
    21:00 -2°C° 0 mm 2 mps 769 mmHg 36%
    22:00 -2°C° 0 mm 2 mps 768 mmHg 37%
    23:00 0°C° 0 mm 1 mps 768 mmHg 36%

    24 February, Sunday

    Time Temperature Precipitation Wind Pressure Humidity
    00:00 0°C° 0 mm 1 mps 768 mmHg 35%
    01:00 0°C° 0 mm 1 mps 768 mmHg 34%
    02:00 0°C° 0 mm 1 mps 768 mmHg 34%
    03:00 0°C° 0 mm 1 mps 767 mmHg 33%
    04:00 -1°C° 0 mm 0 mps 767 mmHg 33%
    05:00 0°C° 0 mm 1 mps 767 mmHg 33%
    06:00 0°C° 0 mm 1 mps 767 mmHg 33%
    07:00 0°C° 0 mm 1 mps 767 mmHg 33%
    08:00 +2°C° 0 mm 1 mps 767 mmHg 31%
    09:00 +3°C° 0 mm 1 mps 767 mmHg 30%
    10:00 +3°C° 0 mm 2 mps 767 mmHg 28%
    11:00 +4°C° 0 mm 2 mps 767 mmHg 28%
    12:00 +6°C° 0 mm 2 mps 767 mmHg 27%
    13:00 +7°C° 0 mm 3 mps 767 mmHg 27%
    14:00 +7°C° 0 mm 2 mps 766 mmHg 33%
    15:00 +6°C° 0 mm 2 mps 766 mmHg 38%
    16:00 +6°C° 0 mm 2 mps 766 mmHg 43%
    17:00 +5°C° 0 mm 2 mps 766 mmHg 47%
    18:00 +3°C° 0 mm 2 mps 766 mmHg 51%
    19:00 +2°C° 0 mm 2 mps 766 mmHg 55%
    20:00 +2°C° 0 mm 2 mps 766 mmHg 58%
    21:00 +1°C° 0 mm 2 mps 766 mmHg 60%
    22:00 +1°C° 0 mm 2 mps 766 mmHg 62%
    23:00 +1°C° 0 mm 2 mps 766 mmHg 64%

    25 February, Monday

    Time Temperature Precipitation Wind Pressure Humidity
    00:00 +1°C° 0 mm 2 mps 766 mmHg 65%
    01:00 +1°C° 0 mm 2 mps 766 mmHg 66%
    02:00 +1°C° 0 mm 2 mps 766 mmHg 67%
    03:00 +1°C° 0 mm 2 mps 766 mmHg 68%
    04:00 +1°C° 0 mm 2 mps 766 mmHg 68%
    05:00 +1°C° 0 mm 2 mps 766 mmHg 70%
    06:00 -1°C° 0 mm 3 mps 766 mmHg 71%
    07:00 -1°C° 0 mm 3 mps 766 mmHg 72%
    08:00 +1°C° 0 mm 3 mps 766 mmHg 68%
    09:00 +3°C° 0 mm 2 mps 767 mmHg 65%
    10:00 +5°C° 0 mm 2 mps 767 mmHg 61%
    11:00 +5°C° 0 mm 3 mps 767 mmHg 58%
    12:00 +8°C° 0 mm 3 mps 766 mmHg 56%
    13:00 +9°C° 0 mm 3 mps 766 mmHg 53%
    14:00 +9°C° 0 mm 3 mps 766 mmHg 55%
    15:00 +9°C° 0 mm 2 mps 765 mmHg 56%
    16:00 +10°C° 0 mm 2 mps 765 mmHg 57%
    17:00 +8°C° 0 mm 2 mps 765 mmHg 62%
    18:00 +7°C° 0 mm 2 mps 765 mmHg 67%
    19:00 +6°C° 0 mm 2 mps 765 mmHg 72%
    20:00 +5°C° 0 mm 2 mps 765 mmHg 75%
    21:00 +5°C° 0 mm 2 mps 765 mmHg 77%
    22:00 +5°C° 0 mm 2 mps 765 mmHg 79%
    23:00 +3°C° 0 mm 3 mps 764 mmHg 80%

    26 February, Tuesday

    Time Temperature Precipitation Wind Pressure Humidity
    00:00 +3°C° 0 mm 3 mps 764 mmHg 80%
    01:00 +3°C° 0 mm 3 mps 763 mmHg 81%
    02:00 +3°C° 0 mm 3 mps 763 mmHg 82%
    03:00 +3°C° 0 mm 3 mps 763 mmHg 82%
    04:00 +3°C° 0 mm 3 mps 762 mmHg 83%
    05:00 +3°C° 0 mm 4 mps 762 mmHg 83%
    06:00 +3°C° 0 mm 4 mps 761 mmHg 82%
    07:00 +3°C° 0 mm 4 mps 761 mmHg 82%
    08:00 +3°C° 0 mm 5 mps 761 mmHg 77%
    09:00 +5°C° 0 mm 5 mps 761 mmHg 73%
    10:00 +7°C° 0 mm 6 mps 760 mmHg 68%
    11:00 +8°C° 0 mm 6 mps 760 mmHg 63%
    12:00 +9°C° 0 mm 6 mps 759 mmHg 57%
    13:00 +10°C° 0 mm 6 mps 759 mmHg 52%
    14:00 +10°C° 0 mm 6 mps 758 mmHg 54%
    15:00 +10°C° 0 mm 6 mps 758 mmHg 55%
    16:00 +10°C° 0 mm 6 mps 758 mmHg 57%
    17:00 +10°C° 0 mm 5 mps 758 mmHg 62%
    18:00 +9°C° 0 mm 5 mps 759 mmHg 67%
    19:00 +8°C° 0 mm 4 mps 759 mmHg 73%
    20:00 +8°C° 0 mm 3 mps 759 mmHg 80%
    21:00 +7°C° 0 mm 3 mps 759 mmHg 86%
    22:00 +6°C° 0 mm 2 mps 760 mmHg 93%
    23:00 +5°C° 0 mm 2 mps 760 mmHg 94%
    Show more